Big Piney, WY

12:56 PM MDT on September 23, 2017 (GMT -0600)
Big Piney-Marbleton

Weather History for KBPI - July, 2013

Change the Weather History Date:

Friday, July 19, 2013

  Actual Average Record
Temperature  
Mean Temperature 69 °F 63 °F  
Max Temperature 90 °F 82 °F 92 °F (2006)
Min Temperature 48 °F 44 °F 34 °F (1993)
Degree Days  
Heating Degree Days 0 3  
Month to date heating degree days 9 79  
Since 1 June heating degree days 226 384  
Since 1 July heating degree days 9 79  
Cooling Degree Days 4 1  
Month to date cooling degree days 50 11  
Year to date cooling degree days 70 13  
Since 1 June cooling degree days 70 13  
Growing Degree Days 21 (Base 50)    
Moisture  
Dew Point 31 °F    
Average Humidity 38    
Maximum Humidity 68    
Minimum Humidity 7    
Precipitation  
Precipitation 0.00 in 0.02 in 0.23 in (1995)
Month to date precipitation 0.54 0.38  
Year to date precipitation 2.24 3.64  
Sea Level Pressure  
Sea Level Pressure 29.96 in    
Wind  
Wind Speed 7 mph (NW)    
Max Wind Speed 21 mph    
Max Gust Speed 26 mph    
Visibility 10 miles    
Events      
T = Trace of Precipitation, MM = Missing Value Source: NWS Daily Summary

Daily Weather History Graph

Daily Weather History Graph

Search for Another Location

Airport or City:

Trip Planner

Search our weather history database for the weather conditions in past years. The results will help you decide how hot, cold, wet, or windy it might be!

Date:

Astronomy

Jul. 19, 2013 Rise Set
Actual Time 6:00 AM MDT 8:52 PM MDT
Civil Twilight 5:26 AM MDT 9:26 PM MDT
Nautical Twilight 4:44 AM MDT 10:08 PM MDT
Astronomical Twilight 3:55 AM MDT 10:57 PM MDT
Moon 5:58 PM MDT (7/19) 2:44 AM MDT (7/19)
Length of Visible Light 15h 59m
Length of Day
14h 52m
Waxing Gibbous, 87% of the Moon is Illuminated
Jul 19
Waxing Gibbous
Jul 22
Full
Jul 29
Last Quarter
Aug 6
New
Aug 14
First Quarter

Hourly Weather History & Observations

Time (MDT) Temp. Dew Point Humidity Pressure Visibility Wind Dir Wind Speed Gust Speed Precip Events Conditions
12:53 AM 55.0 °F 35.1 °F 47% 30.03 in 10.0 mi NW 11.5 mph - N/A   Clear
1:53 AM 53.1 °F 37.0 °F 55% 30.01 in 10.0 mi NE 8.1 mph - N/A   Clear
2:53 AM 54.0 °F 37.0 °F 53% 29.99 in 10.0 mi Calm Calm - N/A   Clear
3:53 AM 53.1 °F 36.0 °F 52% 29.98 in 10.0 mi Calm Calm - N/A   Clear
4:53 AM 52.0 °F 36.0 °F 54% 29.99 in 10.0 mi Calm Calm - N/A   Clear
5:53 AM 53.1 °F 36.0 °F 52% 30.00 in 10.0 mi Calm Calm - N/A   Clear
6:53 AM 52.0 °F 41.0 °F 66% 30.03 in 10.0 mi Calm Calm - N/A   Clear
7:53 AM 59.0 °F 39.9 °F 49% 30.03 in 10.0 mi Calm Calm - N/A   Clear
8:53 AM 64.0 °F 43.0 °F 46% 30.04 in 10.0 mi South 4.6 mph - N/A   Clear
9:53 AM 72.0 °F 39.0 °F 30% 30.03 in 10.0 mi Variable 3.5 mph - N/A   Clear
10:53 AM 78.1 °F 41.0 °F 27% 30.01 in 10.0 mi Variable 5.8 mph - N/A   Clear
11:53 AM 79.0 °F 39.9 °F 25% 29.99 in 10.0 mi Variable 6.9 mph - N/A   Clear
12:53 PM 82.9 °F 34.0 °F 17% 29.97 in 10.0 mi SW 10.4 mph - N/A   Clear
1:53 PM 87.1 °F 33.1 °F 15% 29.95 in 10.0 mi Variable 5.8 mph - N/A   Clear
2:53 PM 90.0 °F 18.0 °F 7% 29.91 in 10.0 mi NNW 11.5 mph 18.4 mph N/A   Clear
3:53 PM 89.1 °F 18.0 °F 7% 29.91 in 10.0 mi NW 13.8 mph 24.2 mph N/A   Clear
4:53 PM 87.1 °F 19.9 °F 8% 29.90 in 10.0 mi WNW 10.4 mph 25.3 mph N/A   Clear
5:53 PM 87.1 °F 18.0 °F 8% 29.88 in 10.0 mi NNW 13.8 mph - N/A   Clear
6:53 PM 84.9 °F 15.1 °F 7% 29.88 in 10.0 mi NW 15.0 mph - N/A   Clear
7:53 PM 79.0 °F 24.1 °F 13% 29.89 in 10.0 mi NW 12.7 mph - N/A   Clear
8:53 PM 68.0 °F 30.0 °F 24% 29.92 in 10.0 mi NNW 10.4 mph - N/A   Clear
9:53 PM 62.1 °F 27.0 °F 26% 29.92 in 10.0 mi NW 13.8 mph - N/A   Clear
10:53 PM 57.0 °F 27.0 °F 32% 29.92 in 10.0 mi North 11.5 mph - N/A   Clear
11:53 PM 57.0 °F 26.1 °F 30% 29.92 in 10.0 mi Variable 5.8 mph - N/A   Clear